User: anonymous   Login
Location: Antichan
(42.9728°N, 0.6667°E)
Time: 12:09:23
(UTC+00:00)
Language:

BREEZE-M DEB (TANK) - Orbit

View from above orbital plane
View from above orbital plane
View from above satellite
View from above satellite

Ground track
Ground track

The orbit data is extracted from the following two-line orbital elements,

1 37604U 11021C   20293.29944152 +.00001066 +00000-0 +21589-3 0  9998
2 37604 049.2299 144.5043 6023411 130.8690 299.5672 04.00097838135112
Epoch (UTC): 19 October 2020 07:11:11
Eccentricity: 0.6023411
inclination: 49.2299°
perigee height: 287 km
apogee height: 20478 km
right ascension of ascending node: 144.5043°
argument of perigee: 130.8690°
revolutions per day: 4.00097838
mean anomaly at epoch: 299.5672°
orbit number at epoch: 13511

The dashed part of the orbit path shows where the satellite is in the earth's shadow,  

DLR